Cleveland, OH

5:26 PM EST on November 19, 2017 (GMT -0500)
Cleveland-Hopkins International

Weather History for KCLE - February, 2013

Change the Weather History Date:

Tuesday, February 26, 2013

  Actual Average Record
Temperature  
Mean Temperature 33 °F 33 °F  
Max Temperature 39 °F 40 °F 74 °F (2000)
Min Temperature 26 °F 25 °F -15 °F (1963)
Degree Days  
Heating Degree Days 32 32  
Month to date heating degree days 974 900  
Since 1 July heating degree days 4120 4152  
Cooling Degree Days 0 0  
Month to date cooling degree days 0 0  
Year to date cooling degree days 0 0  
Moisture  
Dew Point 30 °F    
Average Humidity 76    
Maximum Humidity 92    
Minimum Humidity 59    
Precipitation  
Precipitation 0.54 in 0.09 in 1.23 in (1979)
Month to date precipitation 1.97 2.16  
Year to date precipitation 4.14 4.88  
Snow  
Snow 0.00 in 0.50 in - ()
Month to date snowfall 19.4 13.9  
Since 1 July snowfall 40.3 51.2  
Snow Depth 0.00 in    
Sea Level Pressure  
Sea Level Pressure 29.74 in    
Wind  
Wind Speed 13 mph (ESE)    
Max Wind Speed 26 mph    
Max Gust Speed 35 mph    
Visibility 9 miles    
Events Rain    
T = Trace of Precipitation, MM = Missing Value Source: NWS Daily Summary

Daily Weather History Graph

Daily Weather History Graph

Search for Another Location

Airport or City:

Trip Planner

Search our weather history database for the weather conditions in past years. The results will help you decide how hot, cold, wet, or windy it might be!

Date:

Astronomy

Feb. 26, 2013 Rise Set
Actual Time 7:06 AM EST 6:14 PM EST
Civil Twilight 6:38 AM EST 6:42 PM EST
Nautical Twilight 6:06 AM EST 7:14 PM EST
Astronomical Twilight 5:34 AM EST 7:46 PM EST
Moon 7:31 PM EST (2/26) 7:06 AM EST (2/26)
Length of Visible Light 12h 04m
Length of Day
11h 08m
Full, 99% of the Moon is Illuminated
Feb 26
Full
Mar 4
Last Quarter
Mar 11
New
Mar 19
First Quarter
Mar 27
Full

Hourly Weather History & Observations

Time (EST) Temp. Windchill Dew Point Humidity Pressure Visibility Wind Dir Wind Speed Gust Speed Precip Events Conditions
12:51 AM 30.0 °F 22.4 °F 21.9 °F 72% 30.10 in 10.0 mi NE 8.1 mph - N/A   Scattered Clouds
1:51 AM 28.9 °F 22.8 °F 21.9 °F 75% 30.07 in 10.0 mi ENE 5.8 mph - N/A   Scattered Clouds
2:51 AM 28.0 °F 22.8 °F 21.9 °F 78% 30.08 in 10.0 mi NNE 4.6 mph - N/A   Scattered Clouds
3:51 AM 28.9 °F 21.9 °F 21.9 °F 75% 30.02 in 10.0 mi NE 6.9 mph - N/A   Mostly Cloudy
4:51 AM 28.9 °F 21.1 °F 21.9 °F 75% 30.00 in 10.0 mi ENE 8.1 mph - N/A   Overcast
5:18 AM 28.9 °F 20.4 °F 21.9 °F 75% 29.95 in 10.0 mi NE 9.2 mph - N/A   Overcast
5:51 AM 30.0 °F 26.5 °F 21.9 °F 72% 29.99 in 10.0 mi SE 3.5 mph - N/A   Overcast
6:51 AM 32.0 °F 23.6 °F 21.9 °F 66% 29.97 in 10.0 mi East 10.4 mph - N/A   Overcast
7:51 AM 33.1 °F 24.9 °F 21.9 °F 64% 29.96 in 10.0 mi East 10.4 mph - N/A   Overcast
8:51 AM 34.0 °F 24.2 °F 23.0 °F 64% 29.92 in 10.0 mi East 15.0 mph - N/A   Overcast
9:51 AM 36.0 °F 28.0 °F 23.0 °F 59% 29.91 in 10.0 mi East 11.5 mph - N/A   Overcast
10:51 AM 37.0 °F 28.1 °F 24.1 °F 59% 29.88 in 10.0 mi East 15.0 mph - 0.00 in Rain Light Rain
11:51 AM 37.0 °F 27.7 °F 28.9 °F 73% 29.83 in 10.0 mi East 16.1 mph 24.2 mph 0.03 in Rain Light Rain
12:51 PM 37.0 °F 28.9 °F 30.0 °F 76% 29.78 in 10.0 mi East 12.7 mph - 0.02 in Rain Light Rain
1:51 PM 37.9 °F 29.6 °F 32.0 °F 79% 29.72 in 7.0 mi East 13.8 mph 25.3 mph 0.01 in Rain Light Rain
2:51 PM 37.0 °F 28.1 °F 33.1 °F 86% 29.66 in 8.0 mi ESE 15.0 mph 20.7 mph 0.05 in Rain Light Rain
3:12 PM 37.9 °F 28.2 °F 33.1 °F 83% 29.64 in 10.0 mi ESE 18.4 mph 26.5 mph 0.00 in Rain Light Rain
3:51 PM 37.0 °F 27.7 °F 33.1 °F 86% 29.69 in 3.0 mi SSE 16.1 mph 23.0 mph 0.11 in Rain Rain
4:02 PM 37.0 °F 27.0 °F 33.1 °F 86% 29.66 in 4.0 mi ESE 18.4 mph 27.6 mph 0.04 in Rain Rain
4:51 PM 36.0 °F 26.7 °F 33.1 °F 89% 29.65 in 7.0 mi ESE 15.0 mph 24.2 mph 0.13 in Rain Light Rain
5:13 PM 36.0 °F 26.0 °F 33.1 °F 89% 29.62 in 5.0 mi ESE 17.3 mph 26.5 mph 0.02 in Rain Light Rain
5:29 PM 36.0 °F 26.3 °F 33.1 °F 89% 29.60 in 10.0 mi ESE 16.1 mph - 0.02 in Rain Light Rain
5:51 PM 37.0 °F 26.4 °F 33.1 °F 86% 29.60 in 7.0 mi ESE 20.7 mph 31.1 mph 0.03 in Rain Light Rain
6:10 PM 37.0 °F 27.0 °F 34.0 °F 89% 29.57 in 9.0 mi ESE 18.4 mph 29.9 mph 0.03 in Rain Rain
6:47 PM 37.4 °F 27.2 °F 33.8 °F 87% 29.56 in 9.0 mi SE 19.6 mph 27.6 mph 0.09 in Rain Light Rain
6:51 PM 37.0 °F 26.2 °F 34.0 °F 89% 29.59 in 8.0 mi SE 21.9 mph 29.9 mph 0.10 in Rain Light Rain
7:19 PM 37.9 °F 27.9 °F 34.0 °F 86% 29.56 in 9.0 mi SE 19.6 mph 33.4 mph 0.03 in Rain Light Rain
7:51 PM 37.9 °F 28.2 °F 34.0 °F 86% 29.58 in 10.0 mi SE 18.4 mph 28.8 mph 0.05 in Rain Light Rain
8:00 PM 37.0 °F 27.0 °F 34.0 °F 89% 29.56 in 10.0 mi ESE 18.4 mph 29.9 mph 0.00 in Rain Light Rain
8:51 PM 37.9 °F 28.2 °F 34.0 °F 86% 29.56 in 10.0 mi ESE 18.4 mph 27.6 mph 0.00 in Rain Light Rain
9:12 PM 37.9 °F 29.6 °F 34.0 °F 86% 29.54 in 10.0 mi ESE 13.8 mph 24.2 mph 0.00 in Rain Light Rain
9:34 PM 37.9 °F 28.9 °F 35.1 °F 89% 29.54 in 10.0 mi SE 16.1 mph 25.3 mph 0.00 in   Light Drizzle
9:45 PM 37.4 °F 28.5 °F 35.6 °F 93% 29.53 in 10.0 mi SE 15.0 mph 27.6 mph 0.00 in   Light Drizzle
9:51 PM 37.9 °F 27.3 °F 35.1 °F 89% 29.55 in 10.0 mi SE 21.9 mph 29.9 mph 0.00 in Rain Light Rain
10:02 PM 37.9 °F 27.6 °F 35.1 °F 89% 29.53 in 10.0 mi SE 20.7 mph 31.1 mph 0.00 in Rain Light Rain
10:51 PM 39.0 °F 30.3 °F 35.1 °F 86% 29.53 in 10.0 mi SE 16.1 mph 24.2 mph 0.00 in Rain Light Rain
11:19 PM 39.0 °F 30.3 °F 35.1 °F 86% 29.51 in 10.0 mi SE 16.1 mph 24.2 mph 0.00 in Rain Light Rain
11:51 PM 39.0 °F 29.9 °F 35.1 °F 86% 29.52 in 10.0 mi SE 17.3 mph 26.5 mph 0.01 in Rain Light Rain